sat.trackr.live / text

‹ back to catalog

STARLINK-3332

NORAD 50825 · 2022-001Y

PAYLOAD ACTIVE UNKNOWN

§ Identity

Operator
Country
US
Launch date
2022-01-06
Launch site
AFETR
Launch vehicle
Mass (kg)
RCS (m²)

Purposes: comms

External: N2YO · Heavens-Above · Gunter

§ Orbital elements

Epoch: 2026-09-20T00:14:06.072000Z

Period
94.01 min
Inclination
53.1609°
Eccentricity
0.0001073
Mean motion
15.31697427 rev/d
Perigee alt
470.0 km
Apogee alt
471.5 km
Semi-major
6,848.9 km
B*
3.4936e-5
RAAN
6.1167°
Arg perigee
81.3228°
Mean anomaly
278.7894°
Rev number
25,988

§ Raw data

STARLINK-33321 50825U 22001Y   26263.00979250  .00000719  00000+0  34936-4 0  99912 50825  53.1609   6.1167 0001073  81.3228 278.7894 15.31697427259884

JSON: /api/v1/satellites/50825 · /tle

For live sub-satellite position, see the globe view (requires WebGL).

§ Visibility from observer

Set your observer location to see the next 7 days of passes ≥ 10°. The values pass through the URL so the page stays shareable.

No JS? Fill the form by hand. The geolocation button needs JavaScript.